CCA147 ZBAA-RCKH

Flight info

Callsign CCA147
Flight time 3h 5m
Altitude 391
Route ELKUR W40 YQG/K0882S1160 W142 DALIM/K0876S1190 A593 PK W116 JTN G327 BOLEX B591 MIGOL/K0878S1220 B591 KASKA/N0478F400 L2 BERBA B591 APU W4 PIDGY T13 LUGIA
Aircraft A343/H-SDE2E3GHIJ3J4J5LM1ORWXY/LB1D1

Departure

Time 2026-04-16 11:59
Airport Beijing Capital International Airport (ZBAA)

Arrival

Time 2026-04-16 15:05
Airport Kaohsiung International Airport (RCKH)
Time Latitude Longitude Altitude Speed Heading
2026-04-16 11:15 40.06714 116.60572 129 ft 0 kts 83°
2026-04-16 11:44 40.06715 116.60585 120 ft 4 kts 83°
2026-04-16 11:45 40.06717 116.60606 124 ft 0 kts 83°
2026-04-16 11:45 40.06717 116.60607 124 ft 0 kts 83°
2026-04-16 11:48 40.06717 116.60605 125 ft 3 kts 83°
2026-04-16 11:49 40.06715 116.60581 120 ft 3 kts 83°
2026-04-16 11:49 40.06712 116.60557 128 ft 3 kts 83°
2026-04-16 11:49 40.06710 116.60532 120 ft 3 kts 89°
2026-04-16 11:49 40.06714 116.60507 123 ft 3 kts 118°
2026-04-16 11:50 40.06722 116.60486 121 ft 3 kts 118°
2026-04-16 11:50 40.06734 116.60467 130 ft 3 kts 145°
2026-04-16 11:50 40.06749 116.60452 122 ft 3 kts 162°
2026-04-16 11:50 40.06763 116.60449 124 ft 0 kts 174°
2026-04-16 11:52 40.06760 116.60449 123 ft 1 kts 174°
2026-04-16 11:52 40.06748 116.60451 122 ft 2 kts 174°
2026-04-16 11:52 40.06728 116.60451 128 ft 3 kts 179°
2026-04-16 11:52 40.06702 116.60452 121 ft 4 kts 179°
2026-04-16 11:53 40.06668 116.60455 125 ft 5 kts 175°
2026-04-16 11:53 40.06624 116.60460 124 ft 7 kts 175°
2026-04-16 11:53 40.06571 116.60469 124 ft 8 kts 172°
2026-04-16 11:53 40.06508 116.60480 125 ft 10 kts 172°
2026-04-16 11:54 40.06438 116.60492 122 ft 11 kts 173°
2026-04-16 11:54 40.06360 116.60504 125 ft 12 kts 174°
2026-04-16 11:54 40.06288 116.60484 124 ft 8 kts 241°
2026-04-16 11:54 40.06282 116.60411 127 ft 9 kts 263°
2026-04-16 11:55 40.06275 116.60327 125 ft 10 kts 263°
2026-04-16 11:55 40.06266 116.60232 124 ft 11 kts 263°
2026-04-16 11:55 40.06236 116.60149 124 ft 8 kts 205°
2026-04-16 11:55 40.06179 116.60152 123 ft 9 kts 172°
2026-04-16 11:56 40.06114 116.60163 125 ft 10 kts 172°
2026-04-16 11:56 40.06041 116.60176 125 ft 11 kts 172°
2026-04-16 11:56 40.05961 116.60186 124 ft 12 kts 174°
2026-04-16 11:56 40.05874 116.60198 125 ft 13 kts 174°
2026-04-16 11:57 40.05781 116.60213 125 ft 14 kts 173°
2026-04-16 11:57 40.05682 116.60229 125 ft 15 kts 173°
2026-04-16 11:57 40.05578 116.60245 125 ft 13 kts 177°
2026-04-16 11:57 40.05540 116.60185 123 ft 9 kts 257°
2026-04-16 11:58 40.05543 116.60100 124 ft 10 kts 285°
2026-04-16 11:58 40.05583 116.60026 123 ft 11 kts 310°
2026-04-16 11:58 40.05636 116.60003 125 ft 8 kts 351°
2026-04-16 11:58 40.05799 116.59970 125 ft 53 kts 351°
2026-04-16 11:59 40.06382 116.59881 125 ft 114 kts 353°
2026-04-16 11:59 40.07343 116.59729 124 ft 162 kts 353°
2026-04-16 11:59 40.08579 116.59513 327 ft 192 kts 351°
2026-04-16 11:59 40.09976 116.59289 729 ft 214 kts 354°
2026-04-16 12:00 40.11577 116.59098 998 ft 249 kts 355°
2026-04-16 12:00 40.13549 116.58831 1483 ft 428 kts 352°
2026-04-16 12:00 40.15367 116.58545 6506 ft 414 kts 352°
2026-04-16 12:00 40.17559 116.58174 11544 ft 407 kts 352°
2026-04-16 12:01 40.19983 116.57801 15203 ft 259 kts 350°
2026-04-16 12:01 40.21520 116.57619 18141 ft 197 kts 349°
2026-04-16 12:01 40.22903 116.57463 18234 ft 208 kts 348°
2026-04-16 12:02 40.26056 116.56951 18479 ft 248 kts 346°
2026-04-16 12:02 40.27719 116.56239 18581 ft 258 kts 320°
2026-04-16 12:02 40.28910 116.54454 18786 ft 266 kts 300°
2026-04-16 12:02 40.29976 116.52395 19029 ft 281 kts 303°
2026-04-16 12:03 40.31040 116.50186 19269 ft 293 kts 294°
2026-04-16 12:03 40.31691 116.47620 19491 ft 304 kts 277°
2026-04-16 12:03 40.31795 116.44808 19748 ft 316 kts 269°
2026-04-16 12:03 40.31749 116.41866 20032 ft 329 kts 269°
2026-04-16 12:04 40.31709 116.38819 20315 ft 341 kts 269°
2026-04-16 12:04 40.31685 116.35664 20587 ft 353 kts 269°
2026-04-16 12:04 40.31668 116.32392 20857 ft 364 kts 269°
2026-04-16 12:04 40.31470 116.29033 21104 ft 376 kts 261°
2026-04-16 12:05 40.30799 116.25683 21435 ft 386 kts 250°
2026-04-16 12:05 40.30055 116.23554 21753 ft 391 kts 243°
2026-04-16 12:05 40.28505 116.20602 22254 ft 397 kts 232°
2026-04-16 12:05 40.26484 116.18099 22781 ft 404 kts 220°
2026-04-16 12:06 40.24063 116.16188 23309 ft 412 kts 208°
2026-04-16 12:06 40.20421 116.14574 23916 ft 420 kts 201°
2026-04-16 12:06 40.18569 116.13693 24201 ft 418 kts 207°
2026-04-16 12:06 40.15104 116.11500 24764 ft 418 kts 211°
2026-04-16 12:07 40.13355 116.10320 25059 ft 420 kts 211°
2026-04-16 12:07 40.10761 116.08557 25460 ft 421 kts 211°
2026-04-16 12:07 40.07226 116.06417 26004 ft 426 kts 204°
2026-04-16 12:07 40.05303 116.05630 26262 ft 430 kts 198°
2026-04-16 12:08 40.02371 116.04979 26637 ft 437 kts 188°
2026-04-16 12:08 39.99268 116.04973 27073 ft 444 kts 179°
2026-04-16 12:08 39.96208 116.05632 27424 ft 451 kts 169°
2026-04-16 12:08 39.93215 116.06964 27776 ft 458 kts 162°
2026-04-16 12:09 39.90259 116.08521 28163 ft 459 kts 162°
2026-04-16 12:09 39.87340 116.10008 28514 ft 460 kts 163°
2026-04-16 12:09 39.84344 116.11501 28894 ft 461 kts 163°
2026-04-16 12:09 39.81384 116.13113 29243 ft 466 kts 157°
2026-04-16 12:10 39.78541 116.15200 29600 ft 470 kts 153°
2026-04-16 12:10 39.75783 116.17360 29939 ft 471 kts 153°
2026-04-16 12:10 39.72979 116.19562 30307 ft 470 kts 153°
2026-04-16 12:10 39.70182 116.21749 30615 ft 470 kts 153°
2026-04-16 12:11 39.67377 116.23935 30980 ft 469 kts 153°
2026-04-16 12:11 39.64583 116.26108 31332 ft 468 kts 153°
2026-04-16 12:11 39.61798 116.28269 31748 ft 465 kts 153°
2026-04-16 12:11 39.59027 116.30417 32144 ft 463 kts 153°
2026-04-16 12:12 39.56259 116.32561 32500 ft 462 kts 153°
2026-04-16 12:12 39.53500 116.34694 32838 ft 461 kts 154°
2026-04-16 12:12 39.50751 116.36819 33163 ft 460 kts 154°
2026-04-16 12:12 39.47959 116.38822 33402 ft 458 kts 160°
2026-04-16 12:13 39.44973 116.40185 33570 ft 454 kts 169°
2026-04-16 12:13 39.41922 116.41209 33888 ft 452 kts 170°
2026-04-16 12:13 39.38867 116.42197 34180 ft 451 kts 170°
2026-04-16 12:13 39.35825 116.43183 34401 ft 452 kts 170°
2026-04-16 12:14 39.32773 116.44176 34594 ft 452 kts 170°
2026-04-16 12:14 39.29715 116.45174 34779 ft 453 kts 171°
2026-04-16 12:14 39.26658 116.46172 34964 ft 454 kts 171°
2026-04-16 12:14 39.23592 116.47174 35121 ft 456 kts 171°
2026-04-16 12:15 39.20513 116.48179 35303 ft 456 kts 171°
2026-04-16 12:15 39.17435 116.49184 35495 ft 457 kts 171°
2026-04-16 12:15 39.14350 116.50190 35710 ft 457 kts 171°
2026-04-16 12:15 39.11270 116.51194 35898 ft 458 kts 171°
2026-04-16 12:16 39.08179 116.52200 36093 ft 458 kts 171°
2026-04-16 12:16 39.05085 116.53207 36268 ft 459 kts 171°
2026-04-16 12:16 39.01993 116.54212 36409 ft 460 kts 172°
2026-04-16 12:16 38.98921 116.55209 36571 ft 461 kts 172°
2026-04-16 12:17 38.95813 116.56218 36769 ft 461 kts 172°
2026-04-16 12:17 38.92671 116.57237 37015 ft 459 kts 172°
2026-04-16 12:17 38.89582 116.58239 37318 ft 457 kts 172°
2026-04-16 12:17 38.86540 116.59223 37525 ft 457 kts 172°
2026-04-16 12:18 38.83460 116.60218 37675 ft 457 kts 172°
2026-04-16 12:18 38.80331 116.61228 37817 ft 458 kts 172°
2026-04-16 12:18 38.77283 116.62211 37988 ft 458 kts 172°
2026-04-16 12:18 38.74191 116.63209 38176 ft 458 kts 172°
2026-04-16 12:19 38.71103 116.64204 38352 ft 458 kts 172°
2026-04-16 12:19 38.68017 116.65196 38521 ft 458 kts 173°
2026-04-16 12:19 38.64906 116.65994 38671 ft 452 kts 179°
2026-04-16 12:19 38.61797 116.66212 38803 ft 444 kts 187°
2026-04-16 12:20 38.58722 116.66043 38920 ft 442 kts 190°
2026-04-16 12:20 38.55661 116.65723 39042 ft 441 kts 191°
2026-04-16 12:20 38.49563 116.64935 39082 ft 438 kts 192°
2026-04-16 12:21 38.43514 116.64169 39081 ft 436 kts 191°
2026-04-16 12:21 38.37455 116.63449 39073 ft 440 kts 191°
2026-04-16 12:22 38.31298 116.62870 39081 ft 451 kts 186°
2026-04-16 12:22 38.24966 116.64015 39087 ft 470 kts 172°
2026-04-16 12:23 38.18617 116.66268 39086 ft 477 kts 170°
2026-04-16 12:23 38.12274 116.68698 39084 ft 475 kts 170°
2026-04-16 12:24 38.05961 116.71126 39087 ft 474 kts 170°
2026-04-16 12:24 37.99650 116.73552 39088 ft 474 kts 170°
2026-04-16 12:25 37.93335 116.75960 39091 ft 474 kts 170°
2026-04-16 12:25 37.87019 116.78358 39093 ft 474 kts 170°
2026-04-16 12:26 37.80701 116.80751 39093 ft 474 kts 170°
2026-04-16 12:26 37.74379 116.83142 39093 ft 474 kts 170°
2026-04-16 12:27 37.68061 116.85529 39097 ft 474 kts 170°
2026-04-16 12:27 37.61752 116.87910 39091 ft 472 kts 171°
2026-04-16 12:28 37.55519 116.90258 39092 ft 470 kts 171°
2026-04-16 12:28 37.49260 116.92607 39099 ft 469 kts 171°
2026-04-16 12:29 37.43004 116.94951 39093 ft 469 kts 171°
2026-04-16 12:29 37.36752 116.97291 39096 ft 468 kts 171°
2026-04-16 12:30 37.30501 116.99627 39099 ft 468 kts 171°
2026-04-16 12:30 37.24291 117.02206 39099 ft 473 kts 167°
2026-04-16 12:31 37.18153 117.05203 39093 ft 474 kts 166°
2026-04-16 12:31 37.11988 117.08196 39093 ft 474 kts 167°
2026-04-16 12:32 37.05822 117.11103 39093 ft 474 kts 167°
2026-04-16 12:32 36.99646 117.13976 39095 ft 473 kts 167°
2026-04-16 12:33 36.93471 117.16839 39096 ft 475 kts 168°
2026-04-16 12:33 36.87273 117.19709 39093 ft 474 kts 168°
2026-04-16 12:34 36.81010 117.21436 39102 ft 455 kts 184°
2026-04-16 12:34 36.74727 117.21634 39071 ft 450 kts 188°
2026-04-16 12:35 36.68445 117.21559 39102 ft 452 kts 189°
2026-04-16 12:35 36.62150 117.21464 39101 ft 453 kts 188°
2026-04-16 12:36 36.55851 117.21397 39105 ft 453 kts 188°
2026-04-16 12:36 36.49546 117.21352 39103 ft 454 kts 188°
2026-04-16 12:37 36.43211 117.21449 39109 ft 461 kts 183°
2026-04-16 12:37 36.36844 117.23088 39108 ft 472 kts 173°
2026-04-16 12:38 36.30512 117.25398 39078 ft 475 kts 172°
2026-04-16 12:38 36.24180 117.27809 39109 ft 477 kts 172°
2026-04-16 12:39 36.17838 117.30196 39109 ft 477 kts 172°
2026-04-16 12:39 36.11485 117.32556 39107 ft 476 kts 172°
2026-04-16 12:40 36.05132 117.34903 39092 ft 476 kts 172°
2026-04-16 12:40 35.98784 117.37246 39107 ft 476 kts 172°
2026-04-16 12:41 35.92435 117.39621 39107 ft 476 kts 172°
2026-04-16 12:41 35.86132 117.41985 39107 ft 476 kts 172°
2026-04-16 12:42 35.79752 117.44372 39103 ft 476 kts 172°
2026-04-16 12:42 35.73450 117.46722 39110 ft 476 kts 172°
2026-04-16 12:43 35.67116 117.49082 39113 ft 475 kts 172°
2026-04-16 12:43 35.60801 117.51430 39115 ft 474 kts 172°
2026-04-16 12:44 35.54484 117.53772 39115 ft 474 kts 172°
2026-04-16 12:44 35.48167 117.56111 39114 ft 474 kts 172°
2026-04-16 12:45 35.41839 117.58451 39114 ft 474 kts 172°
2026-04-16 12:45 35.35521 117.60784 39116 ft 474 kts 172°
2026-04-16 12:46 35.29209 117.63112 39115 ft 474 kts 172°
2026-04-16 12:46 35.22898 117.65434 39112 ft 474 kts 172°
2026-04-16 12:47 35.16586 117.67753 39116 ft 473 kts 172°
2026-04-16 12:47 35.10273 117.70069 39114 ft 473 kts 172°
2026-04-16 12:48 35.03964 117.72383 39114 ft 474 kts 173°
2026-04-16 12:48 34.97654 117.74694 39115 ft 474 kts 173°
2026-04-16 12:49 34.91343 117.77001 39117 ft 474 kts 173°
2026-04-16 12:49 34.85028 117.79306 39118 ft 474 kts 173°
2026-04-16 12:50 34.78716 117.81624 39113 ft 475 kts 173°
2026-04-16 12:50 34.72383 117.83904 39115 ft 475 kts 173°
2026-04-16 12:51 34.66041 117.86172 39112 ft 475 kts 173°
2026-04-16 12:51 34.59707 117.88440 39113 ft 475 kts 173°
2026-04-16 12:52 34.53409 117.90697 39110 ft 475 kts 173°
2026-04-16 12:52 34.47157 117.92946 39108 ft 465 kts 173°
2026-04-16 12:53 34.40975 117.95157 39110 ft 463 kts 174°
2026-04-16 12:53 34.34795 117.97355 39110 ft 463 kts 174°
2026-04-16 12:54 34.28656 117.99837 39104 ft 474 kts 165°
2026-04-16 12:54 34.25719 118.01769 39107 ft 486 kts 156°
2026-04-16 12:54 34.22896 118.04044 39116 ft 489 kts 155°
2026-04-16 12:55 34.17345 118.08861 39105 ft 492 kts 154°
2026-04-16 12:55 34.12781 118.12910 39109 ft 491 kts 154°
2026-04-16 12:56 34.06315 118.18602 39109 ft 491 kts 154°
2026-04-16 12:56 34.01721 118.22612 39101 ft 491 kts 154°
2026-04-16 12:57 33.96190 118.27421 39109 ft 490 kts 154°
2026-04-16 12:57 33.90673 118.32254 39110 ft 491 kts 154°
2026-04-16 12:58 33.85159 118.37088 39086 ft 491 kts 154°
2026-04-16 12:58 33.79633 118.41926 39104 ft 491 kts 154°
2026-04-16 12:59 33.74106 118.46753 39078 ft 491 kts 154°
2026-04-16 13:00 33.65844 118.53951 39102 ft 491 kts 154°
2026-04-16 13:00 33.60309 118.58766 39101 ft 491 kts 154°
2026-04-16 13:01 33.54774 118.63572 39101 ft 491 kts 154°
2026-04-16 13:01 33.49236 118.68375 39087 ft 491 kts 155°
2026-04-16 13:02 33.43699 118.73171 39080 ft 491 kts 155°
2026-04-16 13:02 33.38154 118.77981 39088 ft 492 kts 155°
2026-04-16 13:03 33.32610 118.82788 39089 ft 492 kts 155°
2026-04-16 13:03 33.27064 118.87601 39085 ft 493 kts 154°
2026-04-16 13:04 33.21538 118.92428 39082 ft 493 kts 154°
2026-04-16 13:04 33.16007 118.97257 39082 ft 493 kts 155°
2026-04-16 13:05 33.10445 119.02058 39080 ft 493 kts 155°
2026-04-16 13:05 33.04891 119.06841 39082 ft 493 kts 155°
2026-04-16 13:06 32.99325 119.11634 39077 ft 493 kts 155°
2026-04-16 13:06 32.93765 119.16418 39078 ft 493 kts 155°
2026-04-16 13:07 32.88219 119.21235 39075 ft 494 kts 155°
2026-04-16 13:07 32.82686 119.26076 39062 ft 494 kts 155°
2026-04-16 13:08 32.77149 119.30910 39078 ft 493 kts 155°
2026-04-16 13:08 32.71618 119.35720 39076 ft 493 kts 155°
2026-04-16 13:09 32.66081 119.40524 39078 ft 493 kts 155°
2026-04-16 13:09 32.60540 119.45323 39081 ft 493 kts 155°
2026-04-16 13:10 32.55006 119.50110 39057 ft 493 kts 155°
2026-04-16 13:10 32.49457 119.54905 39062 ft 492 kts 156°
2026-04-16 13:11 32.43963 119.59647 39080 ft 492 kts 156°
2026-04-16 13:11 32.38425 119.64382 39081 ft 491 kts 156°
2026-04-16 13:12 32.32870 119.69109 39083 ft 491 kts 156°
2026-04-16 13:12 32.27323 119.73831 39081 ft 491 kts 156°
2026-04-16 13:13 32.21786 119.78553 39074 ft 492 kts 156°
2026-04-16 13:13 32.16260 119.83309 39054 ft 492 kts 156°
2026-04-16 13:14 32.10730 119.88070 39083 ft 492 kts 156°
2026-04-16 13:14 32.05192 119.92824 39075 ft 492 kts 156°
2026-04-16 13:15 31.99646 119.97575 39075 ft 492 kts 156°
2026-04-16 13:15 31.94106 120.02312 39077 ft 492 kts 156°
2026-04-16 13:16 31.88567 120.07040 39076 ft 493 kts 156°
2026-04-16 13:16 31.83017 120.11771 39060 ft 493 kts 156°
2026-04-16 13:17 31.77491 120.16592 39074 ft 502 kts 151°
2026-04-16 13:17 31.74976 120.19525 39075 ft 518 kts 141°
2026-04-16 13:17 31.72864 120.23046 39075 ft 536 kts 128°
2026-04-16 13:18 31.69471 120.30929 39072 ft 544 kts 124°
2026-04-16 13:18 31.66324 120.39006 39075 ft 546 kts 123°
2026-04-16 13:19 31.63154 120.47114 39071 ft 546 kts 124°
2026-04-16 13:19 31.59936 120.55193 39071 ft 546 kts 124°
2026-04-16 13:20 31.56702 120.63234 39076 ft 546 kts 124°
2026-04-16 13:20 31.53452 120.71287 39074 ft 546 kts 124°
2026-04-16 13:21 31.50204 120.79324 39072 ft 546 kts 124°
2026-04-16 13:21 31.46944 120.87373 39072 ft 547 kts 124°
2026-04-16 13:22 31.43677 120.95422 39075 ft 547 kts 124°
2026-04-16 13:22 31.40410 121.03456 39075 ft 547 kts 124°
2026-04-16 13:23 31.37141 121.11479 39083 ft 546 kts 124°
2026-04-16 13:23 31.33865 121.19498 39087 ft 546 kts 124°
2026-04-16 13:23 31.32068 121.23377 39089 ft 535 kts 133°
2026-04-16 13:24 31.29849 121.26764 39094 ft 517 kts 144°
2026-04-16 13:24 31.27238 121.29547 39095 ft 498 kts 155°
2026-04-16 13:24 31.24355 121.31637 39098 ft 478 kts 167°
2026-04-16 13:24 31.21324 121.33027 39088 ft 460 kts 177°
2026-04-16 13:25 31.18251 121.33754 39095 ft 444 kts 186°
2026-04-16 13:25 31.12104 121.35311 39094 ft 466 kts 173°
2026-04-16 13:25 31.09095 121.36880 39069 ft 484 kts 162°
2026-04-16 13:26 31.06262 121.39139 39086 ft 503 kts 150°
2026-04-16 13:26 31.03801 121.42053 39088 ft 521 kts 138°
2026-04-16 13:26 31.01794 121.45653 39087 ft 539 kts 125°
2026-04-16 13:26 31.00419 121.49780 39084 ft 554 kts 111°
2026-04-16 13:27 30.99792 121.54256 39091 ft 565 kts 96°
2026-04-16 13:27 30.99982 121.58841 39099 ft 571 kts 82°
2026-04-16 13:27 31.00973 121.63328 39111 ft 572 kts 71°
2026-04-16 13:28 31.03751 121.72047 39128 ft 575 kts 68°
2026-04-16 13:28 31.05561 121.81088 39110 ft 572 kts 92°
2026-04-16 13:29 31.04913 121.90235 39100 ft 564 kts 103°
2026-04-16 13:29 31.03683 121.99242 39109 ft 563 kts 105°
2026-04-16 13:30 31.02361 122.08263 39085 ft 563 kts 105°
2026-04-16 13:30 31.01080 122.17252 39106 ft 561 kts 104°
2026-04-16 13:31 31.00089 122.26280 39114 ft 565 kts 95°
2026-04-16 13:31 30.99951 122.35454 39096 ft 567 kts 94°
2026-04-16 13:32 30.99964 122.44637 39107 ft 567 kts 93°
2026-04-16 13:32 30.99997 122.53818 39110 ft 566 kts 93°
2026-04-16 13:33 31.00007 122.62998 39120 ft 566 kts 93°
2026-04-16 13:33 31.00013 122.72195 39110 ft 568 kts 93°
2026-04-16 13:34 31.00017 122.81338 39110 ft 568 kts 93°
2026-04-16 13:34 31.00014 122.90553 38926 ft 568 kts 93°
2026-04-16 13:34 31.00001 122.95150 38708 ft 567 kts 95°
2026-04-16 13:35 30.99597 122.99699 38461 ft 560 kts 107°
2026-04-16 13:35 30.98566 123.04028 38184 ft 552 kts 115°
2026-04-16 13:35 30.97285 123.08220 38025 ft 549 kts 117°
2026-04-16 13:36 30.94492 123.16497 37995 ft 549 kts 118°
2026-04-16 13:36 30.91625 123.24750 38003 ft 549 kts 118°
2026-04-16 13:37 30.88780 123.33006 38006 ft 549 kts 118°
2026-04-16 13:37 30.85948 123.41273 38007 ft 549 kts 118°
2026-04-16 13:38 30.83120 123.49528 38004 ft 549 kts 118°
2026-04-16 13:38 30.80218 123.57728 38004 ft 544 kts 124°
2026-04-16 13:38 30.78293 123.61461 38007 ft 530 kts 135°
2026-04-16 13:39 30.75907 123.64636 38006 ft 513 kts 147°
2026-04-16 13:39 30.73162 123.67142 38009 ft 495 kts 159°
2026-04-16 13:39 30.70155 123.68958 38004 ft 478 kts 170°
2026-04-16 13:39 30.67037 123.70066 37991 ft 462 kts 180°
2026-04-16 13:40 30.63905 123.70511 38008 ft 448 kts 190°
2026-04-16 13:40 30.60838 123.70345 38007 ft 435 kts 199°
2026-04-16 13:40 30.57851 123.69840 38007 ft 437 kts 197°
2026-04-16 13:41 30.51702 123.69482 38004 ft 445 kts 192°
2026-04-16 13:41 30.45488 123.69392 38004 ft 447 kts 191°
2026-04-16 13:42 30.40307 123.69389 38003 ft 450 kts 191°
2026-04-16 13:42 30.34029 123.69402 38004 ft 452 kts 191°
2026-04-16 13:43 30.27742 123.69413 38006 ft 452 kts 191°
2026-04-16 13:43 30.20433 123.69417 37984 ft 452 kts 191°
2026-04-16 13:44 30.15160 123.69414 38003 ft 454 kts 191°
2026-04-16 13:44 30.08829 123.69413 38002 ft 455 kts 191°
2026-04-16 13:45 30.02501 123.69415 38003 ft 455 kts 191°
2026-04-16 13:45 29.96225 123.69416 37984 ft 455 kts 190°
2026-04-16 13:46 29.89873 123.69413 37999 ft 457 kts 190°
2026-04-16 13:46 29.83513 123.69414 37997 ft 457 kts 190°
2026-04-16 13:47 29.77155 123.69415 37996 ft 457 kts 190°
2026-04-16 13:47 29.70796 123.69415 38000 ft 457 kts 190°
2026-04-16 13:48 29.64419 123.69415 38001 ft 458 kts 190°
2026-04-16 13:48 29.58046 123.69416 37996 ft 458 kts 190°
2026-04-16 13:49 29.51674 123.69416 37993 ft 458 kts 190°
2026-04-16 13:49 29.45323 123.69414 37997 ft 459 kts 189°
2026-04-16 13:50 29.38928 123.69413 38001 ft 460 kts 189°
2026-04-16 13:50 29.32523 123.69415 38001 ft 460 kts 189°
2026-04-16 13:51 29.26116 123.69416 38001 ft 460 kts 189°
2026-04-16 13:51 29.19704 123.69416 38002 ft 460 kts 189°
2026-04-16 13:52 29.13288 123.69416 38004 ft 460 kts 189°
2026-04-16 13:52 29.06885 123.69416 38001 ft 460 kts 189°
2026-04-16 13:53 29.00476 123.69416 37984 ft 460 kts 189°
2026-04-16 13:53 28.94059 123.69416 37999 ft 461 kts 189°
2026-04-16 13:54 28.87643 123.69415 38000 ft 461 kts 189°
2026-04-16 13:54 28.81226 123.69415 38002 ft 461 kts 189°
2026-04-16 13:55 28.74808 123.69415 37981 ft 461 kts 189°
2026-04-16 13:55 28.68564 123.68614 38002 ft 443 kts 203°
2026-04-16 13:56 28.62788 123.66401 38002 ft 436 kts 208°
2026-04-16 13:56 28.57136 123.63932 37996 ft 435 kts 209°
2026-04-16 13:57 28.51492 123.61435 38004 ft 436 kts 208°
2026-04-16 13:57 28.45806 123.58948 38001 ft 438 kts 208°
2026-04-16 13:58 28.37250 123.55246 38001 ft 439 kts 208°
2026-04-16 13:58 28.31548 123.52785 37982 ft 438 kts 208°
2026-04-16 13:59 28.25841 123.50324 37996 ft 438 kts 208°
2026-04-16 13:59 28.20144 123.47869 37996 ft 438 kts 208°
2026-04-16 14:00 28.14443 123.45414 37996 ft 438 kts 208°
2026-04-16 14:00 28.08746 123.42963 37987 ft 438 kts 207°
2026-04-16 14:01 28.03064 123.40524 37991 ft 436 kts 207°
2026-04-16 14:01 27.97428 123.38105 37992 ft 436 kts 207°
2026-04-16 14:02 27.91759 123.35674 37990 ft 436 kts 207°
2026-04-16 14:02 27.86087 123.33245 37984 ft 436 kts 207°
2026-04-16 14:03 27.80421 123.30822 37988 ft 436 kts 207°
2026-04-16 14:03 27.74742 123.28396 37985 ft 436 kts 207°
2026-04-16 14:04 27.69074 123.25977 37985 ft 436 kts 207°
2026-04-16 14:04 27.63405 123.23561 37973 ft 436 kts 207°
2026-04-16 14:05 27.57715 123.21138 37982 ft 437 kts 207°
2026-04-16 14:05 27.52024 123.18718 37979 ft 437 kts 207°
2026-04-16 14:06 27.46331 123.16300 37979 ft 437 kts 207°
2026-04-16 14:06 27.40638 123.13881 37982 ft 438 kts 207°
2026-04-16 14:07 27.34931 123.11462 37975 ft 439 kts 207°
2026-04-16 14:07 27.29221 123.09046 37970 ft 439 kts 207°
2026-04-16 14:08 27.23507 123.06631 37973 ft 439 kts 207°
2026-04-16 14:08 27.17795 123.04217 37973 ft 439 kts 206°
2026-04-16 14:09 27.12084 123.01808 37978 ft 439 kts 206°
2026-04-16 14:09 27.06618 122.98928 37974 ft 430 kts 218°
2026-04-16 14:10 27.01666 122.95186 37972 ft 428 kts 219°
2026-04-16 14:10 26.96812 122.91308 37970 ft 428 kts 220°
2026-04-16 14:11 26.91966 122.87421 37978 ft 428 kts 220°
2026-04-16 14:11 26.87120 122.83558 37970 ft 428 kts 220°
2026-04-16 14:12 26.82287 122.79726 37969 ft 428 kts 220°
2026-04-16 14:12 26.77426 122.75879 37949 ft 428 kts 220°
2026-04-16 14:13 26.72547 122.72020 37969 ft 429 kts 219°
2026-04-16 14:13 26.67665 122.68164 37968 ft 429 kts 219°
2026-04-16 14:14 26.62790 122.64319 37968 ft 429 kts 219°
2026-04-16 14:14 26.57913 122.60467 37971 ft 429 kts 220°
2026-04-16 14:15 26.53032 122.56616 37971 ft 430 kts 219°
2026-04-16 14:15 26.48134 122.52759 37971 ft 431 kts 219°
2026-04-16 14:16 26.43238 122.48909 37967 ft 431 kts 219°
2026-04-16 14:16 26.38327 122.45050 37964 ft 431 kts 219°
2026-04-16 14:17 26.33425 122.41203 37955 ft 431 kts 219°
2026-04-16 14:17 26.28503 122.37344 37963 ft 433 kts 219°
2026-04-16 14:18 26.23583 122.33491 37966 ft 433 kts 219°
2026-04-16 14:18 26.18658 122.29638 37967 ft 432 kts 219°
2026-04-16 14:19 26.13771 122.25820 37967 ft 432 kts 219°
2026-04-16 14:19 26.08825 122.22009 37963 ft 433 kts 218°
2026-04-16 14:20 26.03855 122.18212 37961 ft 433 kts 218°
2026-04-16 14:20 25.98887 122.14419 37963 ft 433 kts 218°
2026-04-16 14:21 25.93918 122.10622 37963 ft 433 kts 218°
2026-04-16 14:21 25.88953 122.06832 37965 ft 433 kts 218°
2026-04-16 14:22 25.83983 122.03040 37962 ft 433 kts 218°
2026-04-16 14:22 25.79015 121.99255 37958 ft 433 kts 218°
2026-04-16 14:23 25.74047 121.95474 37958 ft 433 kts 218°
2026-04-16 14:23 25.69076 121.91689 37958 ft 433 kts 219°
2026-04-16 14:24 25.64125 121.87867 37956 ft 434 kts 219°
2026-04-16 14:24 25.59165 121.84041 37954 ft 434 kts 219°
2026-04-16 14:25 25.54206 121.80215 37955 ft 434 kts 219°
2026-04-16 14:25 25.49242 121.76394 37955 ft 434 kts 219°
2026-04-16 14:26 25.44282 121.72585 37950 ft 434 kts 218°
2026-04-16 14:26 25.39311 121.68773 37955 ft 435 kts 218°
2026-04-16 14:27 25.34368 121.64985 37954 ft 435 kts 218°
2026-04-16 14:27 25.29390 121.61175 37974 ft 435 kts 218°
2026-04-16 14:28 25.24415 121.57371 37974 ft 435 kts 218°
2026-04-16 14:28 25.19451 121.53527 37982 ft 435 kts 221°
2026-04-16 14:29 25.15131 121.48906 37988 ft 431 kts 231°
2026-04-16 14:29 25.11205 121.43911 37985 ft 430 kts 232°
2026-04-16 14:30 25.07997 121.39718 37984 ft 430 kts 232°
2026-04-16 14:30 25.04137 121.34681 37987 ft 430 kts 232°
2026-04-16 14:31 24.99602 121.28800 38001 ft 432 kts 232°
2026-04-16 14:31 24.96359 121.24609 37980 ft 433 kts 232°
2026-04-16 14:32 24.92453 121.19568 37983 ft 432 kts 232°
2026-04-16 14:32 24.88548 121.14536 37982 ft 432 kts 232°
2026-04-16 14:33 24.84581 121.09570 37984 ft 434 kts 227°
2026-04-16 14:33 24.79762 121.05529 37980 ft 439 kts 216°
2026-04-16 14:34 24.74506 121.02090 38000 ft 440 kts 214°
2026-04-16 14:34 24.69179 120.98746 37996 ft 441 kts 214°
2026-04-16 14:35 24.63859 120.95399 37999 ft 441 kts 214°
2026-04-16 14:35 24.58553 120.92040 37981 ft 440 kts 214°
2026-04-16 14:36 24.53245 120.88671 37996 ft 441 kts 214°
2026-04-16 14:36 24.47925 120.85298 38011 ft 441 kts 214°
2026-04-16 14:37 24.42604 120.81930 38014 ft 441 kts 214°
2026-04-16 14:37 24.37276 120.78577 38006 ft 442 kts 213°
2026-04-16 14:38 24.31882 120.75336 38017 ft 443 kts 212°
2026-04-16 14:38 24.26463 120.72124 38017 ft 443 kts 212°
2026-04-16 14:39 24.21043 120.68897 38018 ft 443 kts 212°
2026-04-16 14:39 24.15630 120.65663 38018 ft 443 kts 212°
2026-04-16 14:40 24.10226 120.62432 37994 ft 443 kts 212°
2026-04-16 14:40 24.04802 120.59193 38015 ft 445 kts 212°
2026-04-16 14:41 23.99365 120.55950 38008 ft 445 kts 212°
2026-04-16 14:41 23.93971 120.52737 38001 ft 445 kts 212°
2026-04-16 14:42 23.88498 120.49480 37995 ft 445 kts 212°
2026-04-16 14:42 23.83055 120.46284 37990 ft 446 kts 211°
2026-04-16 14:43 23.77565 120.43204 37999 ft 446 kts 210°
2026-04-16 14:43 23.72035 120.40122 37997 ft 446 kts 211°
2026-04-16 14:44 23.66510 120.37026 37992 ft 446 kts 211°
2026-04-16 14:44 23.60997 120.33929 37977 ft 446 kts 211°
2026-04-16 14:45 23.55483 120.30831 37993 ft 447 kts 211°
2026-04-16 14:45 23.52718 120.29279 37889 ft 445 kts 211°
2026-04-16 14:45 23.49966 120.27736 37227 ft 446 kts 211°
2026-04-16 14:46 23.47202 120.26185 36463 ft 449 kts 211°
2026-04-16 14:46 23.44409 120.24619 35720 ft 452 kts 211°
2026-04-16 14:46 23.41602 120.23045 34997 ft 455 kts 211°
2026-04-16 14:46 23.38774 120.21462 34265 ft 458 kts 211°
2026-04-16 14:47 23.35928 120.19889 33446 ft 462 kts 208°
2026-04-16 14:47 23.32881 120.18674 32521 ft 470 kts 200°
2026-04-16 14:47 23.29726 120.17670 31670 ft 474 kts 199°
2026-04-16 14:47 23.26539 120.16695 30817 ft 477 kts 199°
2026-04-16 14:48 23.23333 120.15725 29972 ft 480 kts 199°
2026-04-16 14:48 23.20105 120.14753 29027 ft 481 kts 199°
2026-04-16 14:48 23.16886 120.13786 28208 ft 480 kts 198°
2026-04-16 14:48 23.13668 120.12822 27451 ft 478 kts 198°
2026-04-16 14:49 23.10473 120.11865 26733 ft 475 kts 198°
2026-04-16 14:49 23.07303 120.10915 26051 ft 471 kts 198°
2026-04-16 14:49 23.04160 120.09975 25373 ft 467 kts 198°
2026-04-16 14:49 23.01035 120.09040 24743 ft 463 kts 198°
2026-04-16 14:50 22.97947 120.08116 24104 ft 459 kts 198°
2026-04-16 14:50 22.94883 120.07201 23469 ft 455 kts 198°
2026-04-16 14:50 22.91838 120.06292 22739 ft 451 kts 198°
2026-04-16 14:50 22.88744 120.05733 22007 ft 454 kts 184°
2026-04-16 14:51 22.85604 120.06120 21334 ft 457 kts 168°
2026-04-16 14:51 22.82633 120.07354 20682 ft 457 kts 158°
2026-04-16 14:51 22.79758 120.08793 20021 ft 453 kts 158°
2026-04-16 14:51 22.76900 120.10185 19408 ft 449 kts 159°
2026-04-16 14:53 22.57802 120.18844 16466 ft 393 kts 160°
2026-04-16 14:53 22.55279 120.19965 15979 ft 390 kts 160°
2026-04-16 14:54 22.52801 120.21135 15492 ft 388 kts 153°
2026-04-16 14:54 22.50732 120.22956 15028 ft 380 kts 133°
2026-04-16 14:54 22.49123 120.25109 14520 ft 356 kts 129°
2026-04-16 14:54 22.47665 120.27145 14067 ft 337 kts 129°
2026-04-16 14:55 22.46251 120.29086 13575 ft 321 kts 130°
2026-04-16 14:55 22.45006 120.31031 13065 ft 312 kts 116°
2026-04-16 14:55 22.44438 120.33275 12570 ft 309 kts 99°
2026-04-16 14:55 22.44160 120.35580 11883 ft 308 kts 97°
2026-04-16 14:56 22.43912 120.37863 11164 ft 304 kts 97°
2026-04-16 14:56 22.43661 120.40113 10471 ft 300 kts 97°
2026-04-16 14:56 22.43417 120.42335 9776 ft 295 kts 95°
2026-04-16 14:56 22.43187 120.44517 9023 ft 290 kts 97°
2026-04-16 14:57 22.42909 120.46667 8286 ft 287 kts 97°
2026-04-16 14:57 22.42618 120.48789 7568 ft 284 kts 97°
2026-04-16 14:57 22.42316 120.50891 6862 ft 282 kts 97°
2026-04-16 14:57 22.42113 120.52979 6163 ft 277 kts 88°
2026-04-16 14:58 22.42432 120.54987 5437 ft 269 kts 66°
2026-04-16 14:58 22.45017 120.57474 3981 ft 251 kts 10°
2026-04-16 14:58 22.46715 120.57428 3425 ft 241 kts 346°
2026-04-16 14:59 22.48263 120.56923 3117 ft 224 kts 341°
2026-04-16 14:59 22.49694 120.56407 2855 ft 210 kts 341°
2026-04-16 14:59 22.51046 120.55921 2629 ft 201 kts 341°
2026-04-16 14:59 22.52368 120.55451 2384 ft 200 kts 342°
2026-04-16 15:00 22.53688 120.54986 2143 ft 200 kts 342°
2026-04-16 15:00 22.55012 120.54515 1894 ft 199 kts 341°
2026-04-16 15:00 22.56217 120.53798 1643 ft 200 kts 315°
2026-04-16 15:00 22.56846 120.52531 1684 ft 181 kts 290°
2026-04-16 15:01 22.57130 120.51285 1631 ft 162 kts 280°
2026-04-16 15:01 22.57198 120.50132 1560 ft 145 kts 275°
2026-04-16 15:01 22.57244 120.49056 1570 ft 144 kts 277°
2026-04-16 15:01 22.57298 120.47972 1582 ft 145 kts 277°
2026-04-16 15:02 22.57342 120.46886 1581 ft 145 kts 276°
2026-04-16 15:02 22.57371 120.45810 1576 ft 145 kts 275°
2026-04-16 15:02 22.57406 120.44707 1573 ft 145 kts 276°
2026-04-16 15:02 22.57445 120.43616 1438 ft 146 kts 274°
2026-04-16 15:03 22.57479 120.42528 1250 ft 143 kts 275°
2026-04-16 15:03 22.57513 120.41447 1068 ft 144 kts 275°
2026-04-16 15:03 22.57548 120.40381 869 ft 144 kts 276°
2026-04-16 15:03 22.57566 120.39286 644 ft 145 kts 276°
2026-04-16 15:04 22.57590 120.38236 429 ft 140 kts 274°
2026-04-16 15:04 22.57627 120.37175 239 ft 144 kts 274°
2026-04-16 15:04 22.57671 120.36119 71 ft 138 kts 274°
2026-04-16 15:04 22.57704 120.35113 41 ft 123 kts 271°
2026-04-16 15:05 22.57723 120.34512 43 ft 37 kts 272°
2026-04-16 15:05 22.57725 120.34448 43 ft 1 kts 272°
2026-04-16 15:05 22.57726 120.34433 43 ft 3 kts 272°
2026-04-16 15:05 22.57727 120.34400 44 ft 6 kts 272°
2026-04-16 15:06 22.57729 120.34348 44 ft 8 kts 272°
2026-04-16 15:06 22.57731 120.34274 44 ft 11 kts 272°
2026-04-16 15:06 22.57727 120.34180 43 ft 13 kts 257°
2026-04-16 15:06 22.57709 120.34146 42 ft 1 kts 224°
2026-04-16 15:07 22.57691 120.34132 42 ft 5 kts 209°
2026-04-16 15:07 22.57669 120.34129 43 ft 0 kts 182°
2026-04-16 15:09 22.57660 120.34128 43 ft 3 kts 182°
2026-04-16 15:09 22.57626 120.34127 43 ft 7 kts 182°
2026-04-16 15:09 22.57566 120.34123 43 ft 11 kts 182°
2026-04-16 15:09 22.57480 120.34120 42 ft 14 kts 181°
2026-04-16 15:10 22.57409 120.34111 42 ft 0 kts 222°
2026-04-16 15:10 22.57408 120.34108 42 ft 1 kts 231°
2026-04-16 15:10 22.57407 120.34096 42 ft 2 kts 271°
2026-04-16 15:10 22.57409 120.34068 42 ft 5 kts 274°
2026-04-16 15:11 22.57430 120.34041 41 ft 4 kts 337°
2026-04-16 15:11 22.57466 120.34038 42 ft 6 kts
2026-04-16 15:11 22.57490 120.34039 42 ft 0 kts